Reflectivity
-20 -20 -18 10 -20 -20 -20 -20 -20 -20 -20 -20 -20 -20 -20 -20 -20 -20 -20 -20 -20 -12 -9 -5 5 18 29 7 26 24 16 11 8 -19 -19 -16 5 17 17 -20 -12 -18 -15
-20 -20 -2 -19 -20 -14 -20 -0 -20 -20 -20 -20 -20 -20 -20 -20 -20 -20 -20 -20 -20 -20 -20 -20 -20 -20 -20 -20 -20 -19 -2 -16 11 12 -6 14 16 -10 5 -8 -8 -11 6
-20 -20 -20 -20 -20 -20 -20 -20 -20 -18 -18 -20 -20 -20 -20 -20 -20 -20 -20 -20 -20 -20 -20 -20 -20 -20 -20 -11 -11 -2 -16 -16 -15 -19 -19 -20 -1 -5 -20 -20 -18 -10 -20
-17 21 11 -11 -1 -20 -20 -20 -20 -20 -8 7 -6 -20 -20 -20 -20 -20 -20 -20 -20 -20 -20 -20 -20 -20 -20 -20 -20 -20 6 9 -6 -6 -20 -20 -20 -20 -20 -20 -20 -20 -20
24 12 4 -11 -20 -20 -20 -20 -20 -20 -20 -20 -20 -20 -20 -20 -20 -20 -20 -20 -20 -20 -20 -20 -20 -20 -20 -20 -20 -20 -20 -20 -20 -20 -20 -20 -20 -20 -20 -20 -20 -20 -20
20 13 5 16 21 16 -6 -5 2 4 6 -20 -20 -20 -20 -20 -19 -20 -20 -20 -20 -20 -20 -20 -20 -20 -20 -20 -20 -20 -20 -19 -20 -20 -20 -20 -20 -20 -20 -20 -20 -20 -20
3 -12 9 13 3 -15 4 16 21 24 16 9 -11 -13 -19 -20 -20 11 13 10 18 13 -3 -20 -20 -20 -20 -20 -20 -20 -20 -11 16 6 5 9 20 8 -20 -20 -20 -20 -20
-18 -16 -14 -20 -20 -20 8 5 8 15 16 24 18 19 17 15 27 22 12 -1 -15 -19 -20 -20 -19 -20 -13 -15 -20 -20 -20 -20 -18 -1 1 -5 14 19 16 12 12 4 6
-15 5 -20 -20 -20 -20 -20 -20 -20 -20 -20 -7 9 1 6 17 21 11 13 21 28 14 10 11 16 20 12 13 -11 -5 -20 -20 18 15 15 15 12 14 15 13 15 22 23
-20 -1 -16 -20 -20 -20 -20 -20 -20 -20 -20 -20 -20 -20 10 -15 23 6 6 7 3 6 11 11 33 29 23 19 20 25 23 15 -1 20 28 23 17 14 20 14 4 4 27
-20 -20 -20 -20 -20 -20 -20 -20 -20 -20 -20 -20 -18 -20 -12 7 1 3 -4 -12 -4 13 25 24 17 32 13 16 17 23 30 29 30 39 37 33 24 19 23 22 11 22 29
-17 -20 -20 -19 -14 -20 -20 -20 -20 -20 -20 -20 -20 -20 -20 -20 14 1 -16 -16 -11 -15 0 16 19 32 19 29 25 24 34 44 32 29 28 38 41 35 37 30 30 26 24
-1 -7 -15 -20 -20 -20 -20 -20 -20 -20 -20 -20 -20 -20 -20 -20 -20 -20 -20 -7 -7 -20 -19 2 8 8 5 14 16 25 29 34 23 24 23 24 29 33 31 30 30 28 27
-19 -20 -20 -20 -20 -20 -20 -20 -20 -20 -20 -20 -20 -20 -20 -17 -20 -20 -20 -20 -20 -20 -20 -20 -13 -8 -4 5 13 16 15 22 25 26 30 29 26 25 23 23 22 21 21
-20 -20 -20 -20 -20 -20 -18 -17 -17 -13 -17 -19 -19 -16 -20 -20 -10 3 -19 -20 -20 -20 -20 -20 -20 -20 -17 5 14 14 4 6 5 3 3 7 13 15 13 11 10 13 14
-20 -20 -20 -20 -20 -20 -20 -19 -4 6 9 9 8 -16 -11 4 2 -15 -19 -20 -20 -20 -20 -20 -20 -20 -20 -20 -19 -11 -6 -6 -13 -18 -9 4 11 14 15 16 15 9 9
-20 -20 -20 -20 -20 -20 -20 -20 -20 -20 -20 -9 -6 -6 0 -1 -20 -20 -20 -20 -20 -20 -20 -20 -20 -20 -20 -20 -20 -20 -13 -5 3 -1 -14 -5 2 5 7 -2 -3 -5 -4
-20 -20 -20 -20 -20 -20 -20 -20 -20 -20 -20 -20 -20 -20 -0 -5 -18 -20 -20 -19 -20 -20 -20 -20 -20 -20 -20 -20 -19 -7 -5 -1 4 6 -2 -18 -20 -20 -20 -20 -20 -18 -16
-20 -20 -20 -20 -20 -20 -20 -20 -20 -20 -20 -20 -20 -20 -20 -13 -20 -20 -20 -20 -20 -20 -20 -20 -20 -20 -20 -20 -20 -20 -20 -17 -15 -11 -13 -11 -20 -20 -20 -20 -20 -20 -20
-20 -20 -20 -20 -20 -20 -20 -20 -20 -20 -20 -20 -20 -20 -20 -20 -20 -20 -20 -20 -20 -20 -20 -20 -20 -20 -20 -20 -20 -20 -20 -20 -20 -20 -20 -20 -20 -20 -20 -20 -20 -20 -20
-20 -20 -20 -20 -20 -20 -20 -20 -20 -20 -20 -20 -20 -20 -20 -20 -20 -20 -20 -20 -20 -20 -20 -20 -20 -20 -20 -20 -20 -20 -20 -20 -20 -20 -20 -20 -20 -20 -20 -20 -20 -20 -20
-20 -20 -20 -20 -20 -20 -20 -20 -20 -20 -20 -20 -20 -20 -20 -20 -20 -20 -20 -20 -20 -20 -20 -20 -20 -20 -20 -20 -20 -20 -20 -20 -20 -20 -20 -20 -20 -20 -20 -20 -20 -20 -20
-20 -20 -20 -20 -20 -20 -20 -20 -20 -20 -20 -20 -20 -20 -20 -20 -20 -20 -20 -20 -20 -20 -20 -20 -20 -20 -20 -20 -20 -20 -20 -20 -20 -20 -20 -20 -20 -20 -20 -20 -20 -20 -20
-20 -20 -20 -20 -20 -20 -20 -20 -20 -20 -20 -20 -20 -20 -20 -20 -20 -20 -20 -20 -20 -20 -20 -20 -20 -20 -20 -20 -20 -20 -20 -20 -20 -20 -20 -20 -20 -20 -20 -20 -20 -20 -20
-20 -20 -20 -20 -20 -20 -20 -20 -20 -20 -20 -20 -20 -20 -20 -20 -20 -20 -20 -20 -20 -20 -20 -20 -20 -20 -20 -20 -20 -20 -20 -20 -20 -20 -20 -20 -20 -20 -20 -20 -20 -20 -20
-20 -20 -20 -20 -20 -20 -20 -20 -20 -20 -20 -20 -20 -20 -20 -20 -20 -20 -20 -20 -20 -20 -20 -20 -20 -20 -20 -20 -20 -20 -20 -20 -20 -20 -20 -20 -20 -20 -20 -20 -20 -20 -20
Wind_Speed
10 9 8 8 8 7 8 7 7 7 7 8 9 10 9 9 10 9 10 10 12 13 12 12 12 12 10 10 9 9 9 7 11 9 5 6 6 11 10 10 11 9 10
9 9 9 10 8 6 6 7 8 9 8 9 8 9 10 10 9 11 11 10 12 13 13 12 14 11 15 15 12 15 14 12 11 16 13 10 9 13 12 12 11 10 11
9 9 9 10 8 7 9 7 7 7 8 9 10 10 10 11 12 12 13 12 12 13 14 15 16 15 16 12 13 12 11 10 10 11 14 12 12 6 10 11 12 12 9
7 7 7 7 8 8 6 9 8 9 9 9 9 11 12 12 12 12 12 13 13 12 14 15 15 16 17 15 12 14 12 11 10 11 12 13 10 9 7 10 11 10 12
6 7 8 7 6 6 6 7 8 8 8 9 10 11 11 12 11 14 14 15 15 16 15 14 15 17 18 18 12 15 13 12 12 13 13 12 12 11 11 11 11 12 11
12 11 10 12 7 3 4 8 9 11 12 12 12 12 12 10 13 17 16 14 15 16 16 16 16 16 20 18 22 25 21 17 18 15 15 17 20 16 14 13 12 12 14
12 12 12 11 10 10 9 9 10 8 5 11 13 13 15 15 14 16 18 15 14 14 16 16 15 13 16 17 20 21 21 21 20 20 20 19 19 16 15 16 15 14 15
13 13 12 11 11 11 10 10 9 8 7 6 8 9 11 11 9 10 19 17 17 18 17 18 18 19 19 19 18 18 18 20 20 17 23 22 20 15 14 14 14 13 4
13 12 11 10 11 10 11 11 9 8 7 8 9 12 12 12 21 18 11 10 14 18 18 19 18 19 21 17 18 19 18 15 7 8 10 12 10 12 7 6 7 3 2
12 11 10 9 10 11 10 10 9 7 8 7 10 11 16 12 22 19 13 4 9 10 13 14 9 13 15 11 16 18 18 15 9 8 8 10 12 13 18 8 5 11 3
10 10 11 10 10 11 10 9 9 8 8 8 9 8 10 13 14 23 21 5 1 5 8 9 10 16 16 16 10 4 6 13 15 13 11 10 10 11 10 11 12 8 5
8 10 10 11 10 9 10 10 9 9 8 9 8 8 8 9 18 23 25 23 16 11 10 8 10 24 28 23 18 22 22 15 11 10 10 10 8 8 10 11 15 14 12
8 10 12 12 11 9 11 12 8 9 8 8 9 8 8 7 7 18 21 23 23 13 10 18 24 24 26 21 29 23 16 10 10 12 10 9 8 8 8 8 11 16 17
10 10 11 11 12 12 9 10 10 10 10 9 9 9 9 9 9 7 8 9 16 12 11 12 14 16 20 17 15 18 12 11 14 9 10 7 8 9 8 7 6 8 9
8 9 9 8 9 10 13 11 11 13 13 8 9 8 7 9 11 15 13 8 8 9 10 10 11 11 12 12 12 11 11 12 10 8 8 8 9 8 9 7 7 7 8
8 7 7 6 6 6 5 7 23 21 25 24 21 11 9 18 20 21 23 23 21 17 11 10 10 10 11 10 10 10 10 10 8 8 8 8 8 7 7 7 6 7 8
7 7 5 7 6 6 6 6 5 9 22 26 25 24 23 19 20 20 22 25 22 15 11 9 9 9 9 9 9 9 8 8 8 7 7 7 7 7 7 7 7 7 7
8 11 6 5 5 6 6 6 5 6 7 8 16 20 22 22 22 19 16 14 11 13 9 9 8 8 8 8 8 8 7 7 8 7 7 7 6 7 7 7 8 7 7
6 5 3 4 5 5 5 6 6 7 7 6 6 7 11 18 21 24 21 10 9 9 8 9 8 8 8 7 7 7 8 7 6 6 6 6 6 6 7 6 7 9 7
5 7 6 4 4 5 5 6 6 6 6 6 7 7 6 7 10 10 9 8 8 7 7 7 7 7 7 7 6 6 7 7 6 6 5 5 5 6 6 6 6 6 6
3 5 6 6 6 5 5 6 5 5 5 6 6 7 9 8 7 7 7 7 7 6 6 6 6 7 7 6 7 6 6 5 5 5 5 5 4 4 5 5 5 6 5
3 4 5 5 5 5 5 5 5 5 6 6 5 7 9 7 7 7 7 6 6 6 5 6 6 6 7 6 6 5 5 5 4 4 4 4 4 4 4 4 4 4 5
4 5 5 5 5 6 6 5 5 5 5 5 5 5 6 6 5 6 6 5 5 5 5 5 5 5 5 5 5 5 5 4 3 2 3 3 3 3 3 3 3 3 4
5 5 6 5 5 5 4 4 4 6 5 4 3 4 4 4 4 5 4 4 4 3 4 4 4 5 5 4 4 4 4 3 3 3 3 2 2 3 2 3 3 3 2
4 4 5 5 5 3 4 4 4 4 3 3 3 3 3 3 4 4 3 2 3 4 4 4 3 4 5 5 5 5 5 5 4 4 3 3 3 2 1 1 1 1 1
5 5 4 3 3 3 3 3 2 3 3 2 2 2 2 3 3 2 2 3 3 3 4 3 4 5 5 2 2 4 5 5 4 3 1 1 1 0 0 1 2 2 3
Wind_Direction
168 173 180 187 179 166 171 168 171 170 176 176 177 181 188 186 189 191 204 200 203 214 217 212 208 219 226 220 226 226 236 227 243 252 216 216 212 218 231 223 229 230 238
162 168 184 192 175 178 174 170 176 180 184 188 182 187 192 196 197 203 207 206 207 212 216 216 222 225 228 227 221 224 223 220 226 238 237 238 227 242 238 236 232 236 236
166 174 180 183 172 186 180 181 181 182 182 190 195 198 198 202 205 207 209 211 211 213 215 217 221 221 226 223 224 228 227 229 226 240 246 240 246 215 238 244 244 242 236
159 170 173 182 187 190 189 178 187 195 200 202 204 205 206 204 210 212 216 223 224 222 222 224 224 223 224 224 224 227 230 230 228 233 241 249 246 237 226 241 243 229 246
157 175 193 198 183 202 204 202 192 196 213 221 218 217 216 215 210 211 216 220 225 230 231 228 230 232 229 226 224 233 228 229 234 238 240 243 243 237 230 236 242 254 244
57 55 45 43 44 352 268 224 219 221 218 220 221 223 224 225 219 212 213 216 220 225 233 236 238 230 237 227 224 235 233 223 232 236 237 239 244 245 243 241 244 245 258
53 47 40 37 39 28 20 28 30 1 285 233 229 226 232 234 224 222 218 231 230 226 230 234 235 233 231 237 232 236 242 238 238 243 245 242 247 242 241 239 237 243 248
43 38 32 31 34 27 23 16 9 3 1 350 349 313 266 247 350 265 219 225 233 236 233 235 237 239 231 224 230 233 229 236 236 241 247 253 252 251 245 250 252 254 14
38 35 29 22 30 24 20 10 2 356 2 7 25 28 19 40 14 5 356 251 240 240 239 241 242 246 247 232 233 236 238 238 85 104 70 65 52 47 9 247 232 185 200
31 27 29 27 35 30 17 8 358 359 22 30 46 37 31 28 13 5 355 326 278 264 256 260 340 351 355 311 239 240 245 235 138 92 74 58 50 46 42 30 340 250 162
27 26 30 30 38 30 28 22 15 19 36 41 55 43 38 28 21 19 11 345 340 71 47 32 22 27 43 53 51 7 3 103 102 102 67 22 42 45 50 38 47 55 84
38 40 39 33 34 26 27 30 26 31 40 39 40 41 31 24 28 35 39 39 49 73 67 57 46 45 49 53 58 66 80 90 85 76 75 81 72 32 48 56 63 60 60
42 42 50 44 40 32 38 39 37 37 40 41 46 40 30 21 24 28 40 51 55 63 60 64 54 48 47 44 48 50 60 56 63 78 66 66 58 36 42 52 68 71 58
40 40 51 55 47 42 42 41 39 40 46 46 49 49 45 42 35 25 34 38 47 52 52 53 58 57 55 52 45 47 46 57 71 66 66 55 61 66 42 37 52 72 74
41 43 38 38 46 52 51 43 46 47 50 53 50 48 48 51 48 57 58 54 51 52 66 56 53 51 52 51 47 42 46 46 51 60 66 55 53 48 50 27 37 51 63
61 50 37 37 35 37 47 60 55 58 58 58 60 58 54 64 63 66 68 66 60 53 59 50 47 56 65 59 54 49 45 48 42 49 61 67 65 58 59 64 65 64 73
44 42 42 39 33 41 40 40 42 33 50 49 49 51 53 54 59 64 66 68 64 66 64 57 57 47 44 50 60 56 48 38 43 45 50 55 66 72 69 59 54 60 66
44 42 45 41 39 45 44 42 40 39 34 26 30 35 48 52 55 54 57 61 50 45 53 57 58 53 49 55 54 57 51 46 42 38 36 46 51 64 66 60 59 55 56
38 39 24 48 46 46 47 54 54 50 45 36 17 21 22 45 54 50 47 51 51 47 43 48 43 48 52 51 52 54 56 54 51 46 37 40 38 56 61 56 62 58 59
31 45 43 42 43 47 47 56 56 58 58 50 41 24 10 33 39 34 36 44 47 41 36 44 40 42 43 46 43 48 51 41 40 48 39 38 38 49 59 59 52 57 51
31 41 39 48 46 45 52 55 53 56 59 56 47 23 40 66 54 42 39 36 36 39 36 42 37 42 45 46 51 50 54 41 38 38 42 43 34 54 50 53 51 51 49
26 53 58 59 55 54 61 61 58 60 55 55 41 35 35 54 59 55 45 37 32 34 31 44 50 47 47 49 50 56 57 45 27 24 38 38 43 49 55 62 53 43 39
44 49 57 55 57 53 48 47 56 60 59 57 55 50 45 46 49 54 50 29 32 28 18 42 53 57 50 45 41 49 54 38 13 13 40 43 51 55 54 61 41 40 36
42 44 62 59 54 60 52 47 48 61 64 58 48 49 51 57 46 48 42 16 26 21 25 32 48 56 50 40 34 40 54 41 30 33 46 48 43 39 48 45 36 26 34
48 58 61 61 62 52 50 48 47 49 52 50 48 46 56 47 55 39 12 5 26 37 32 31 31 42 48 40 39 37 26 34 30 23 29 45 58 45 48 52 25 350 23
50 54 56 60 59 61 73 75 55 48 64 63 66 52 48 51 46 12 357 26 36 36 30 19 13 8 358 23 68 44 24 20 28 48 32 87 152 104 86 60 26 17 17